This demonstration page uses our WeatherBlox Daily Observations layout. Learn more.

Hourly Observations for August 30, 2017

Temp ( °F °C ) Dew Point ( °F °C ) Humidity (%) Winds ( mph kmh ) Pressure ( in mb ) Visibility ( mi km ) Precip ( " mm )
12:15 am 00:15 Clear 62 16.8 58 14.2 85 85 SE 5 7 30.06 1018 10 16.09344 0 0
12:35 am 00:35 Clear 64 17.5 58 14.5 83 83 SE 5 7 30 1016 10 16.09344 0 0
12:55 am 00:55 Clear 62 16.9 57 14 83 83 SE 3 6 30.06 1018 10 16.09344 0 0
1:15 am 01:15 Clear 62 16.5 57 14 85 85 SSE 5 7 30.06 1018 10 16.09344 0 0
1:35 am 01:35 Clear 61 16 56 13.4 85 85 Calm 30.06 1018 10 16.09344 0 0
1:55 am 01:55 Clear 62 16.4 57 14 86 86 SE 3 6 30.06 1018 10 16.09344 0 0
2:15 am 02:15 Clear 60 15.4 55 13 86 86 Calm 30.06 1018 10 16.09344 0 0
2:35 am 02:35 Clear 59 15.1 56 13.4 90 90 Calm 30.06 1018 10 16.09344 0 0
2:55 am 02:55 Clear 61 16 56 13.6 86 86 SE 3 6 30.06 1018 10 16.09344 0 0
3:15 am 03:15 Clear 60 15.5 56 13.1 86 86 Calm 30.06 1018 10 16.09344 0 0
3:35 am 03:35 Clear 57 13.7 54 12.3 91 91 Calm 30.09 1019 10 16.09344 0 0
3:55 am 03:55 Clear 57 13.8 55 12.6 93 93 Calm 30.09 1019 10 16.09344 0 0
4:15 am 04:15 Clear 56 13.2 54 12 93 93 E 5 7 30.09 1019 10 16.09344 0 0
4:35 am 04:35 Clear 56 13.6 54 12.4 93 93 E 6 9 30.09 1019 10 16.09344 0 0
4:55 am 04:55 Clear 56 13.1 53 11.9 93 93 ESE 5 7 30.09 1019 7 11.265408 0 0
5:15 am 05:15 Clear 56 13.6 55 12.5 93 93 SE 3 6 30.09 1019 10 16.09344 0 0
5:35 am 05:35 Clear 58 14.6 55 12.7 88 88 SE 3 6 30.06 1018 10 16.09344 0 0
5:55 am 05:55 Clear 56 13.2 53 11.8 91 91 Calm 30.09 1019 10 16.09344 0 0
6:15 am 06:15 Clear 55 12.6 53 11.5 93 93 ESE 3 6 30.09 1019 10 16.09344 0 0
6:35 am 06:35 Clear 55 12.9 53 11.7 92 92 ESE 5 7 30.09 1019 10 16.09344 0 0
6:55 am 06:55 Clear 54 12.3 52 11.2 93 93 Calm 30.09 1019 7 11.265408 0 0
7:15 am 07:15 Sunny with Mist and Fog 55 12.7 53 11.7 94 94 ESE 3 6 30.09 1019 5 8.04672 0 0
7:35 am 07:35 Sunny 55 12.9 53 11.8 93 93 ESE 3 6 30.09 1019 7 11.265408 0 0
7:55 am 07:55 Sunny 58 14.4 56 13.2 93 93 ESE 5 7 30.06 1018 7 11.265408 0 0
8:15 am 08:15 Sunny 60 15.5 56 13.6 89 89 SE 3 6 30.06 1018 10 16.09344 0 0
8:35 am 08:35 Sunny 62 16.4 57 13.8 85 85 SE 6 9 30.06 1018 10 16.09344 0 0
8:55 am 08:55 Sunny 63 17.1 57 13.9 82 82 SE 6 9 30.06 1018 10 16.09344 0 0
9:15 am 09:15 Sunny 65 18.1 58 14.4 79 79 SSE 6 9 30.06 1018 10 16.09344 0 0
9:35 am 09:35 Sunny 66 18.7 58 14.6 77 77 SSE 7 11 30.06 1018 10 16.09344 0 0
9:55 am 09:55 Sunny 68 20 59 14.8 72 72 SE 8 13 30.06 1018 10 16.09344 0 0
10:15 am 10:15 Sunny 70 21.1 59 15 68 68 SE 10 17 30 1016 10 16.09344 0 0
10:35 am 10:35 Sunny 72 22.2 59 15 64 64 SSE 9 15 30.03 1017 10 16.09344 0 0
10:55 am 10:55 Sunny 74 23.1 60 15.3 62 62 SSE 6 9 30.03 1017 10 16.09344 0 0
11:15 am 11:15 Sunny 75 24.1 60 15.6 59 59 SSE 8 13 30.03 1017 10 16.09344 0 0
11:35 am 11:35 Sunny 76 24.7 60 15.4 56 56 SSE 9 15 30 1016 10 16.09344 0 0
11:55 am 11:55 Sunny 78 25.6 60 15.4 53 53 S 8 13 30 1016 10 16.09344 0 0
12:15 pm 12:15 Sunny 79 26 59 14.9 50 50 SSE 9 15 29.97 1015 10 16.09344 0 0
12:35 pm 12:35 Sunny 80 26.5 59 14.9 49 49 S 14 22 29.97 1015 10 16.09344 0 0
12:55 pm 12:55 Sunny 80 26.9 58 14.5 47 47 S 12 19 29.97 1015 10 16.09344 0 0
1:15 pm 13:15 Sunny 81 27.3 59 14.8 46 46 S 13 20 29.97 1015 10 16.09344 0 0
1:35 pm 13:35 Sunny 82 27.5 59 15 46 46 S 9 15 29.97 1015 10 16.09344 0 0
1:55 pm 13:55 Sunny 82 27.8 60 15.4 47 47 SSE 10 17 29.97 1015 10 16.09344 0 0
2:15 pm 14:15 Sunny 82 28 60 15.3 46 46 SSE 12 19 29.94 1014 10 16.09344 0 0
2:35 pm 14:35 Sunny 82 28 60 15.4 46 46 SSE 12 19 29.94 1014 10 16.09344 0 0
2:55 pm 14:55 Sunny 83 28.1 60 15.4 46 46 SSE 12 19 29.94 1014 10 16.09344 0 0
3:15 pm 15:15 Sunny 83 28.3 61 16.2 48 48 SE 8 13 29.94 1014 10 16.09344 0 0
3:35 pm 15:35 Sunny 83 28.3 62 16.5 49 49 SSE 9 15 29.94 1014 10 16.09344 0 0
3:55 pm 15:55 Sunny 82 28 61 16.1 48 48 SSE 9 15 29.94 1014 10 16.09344 0 0
4:15 pm 16:15 Sunny 83 28.2 61 15.9 47 47 SSE 10 17 29.94 1014 10 16.09344 0 0
4:35 pm 16:35 Sunny 83 28.1 61 15.9 47 47 SSE 9 15 29.91 1013 10 16.09344 0 0
4:55 pm 16:55 Sunny 83 28.1 62 16.6 50 50 SSE 10 17 29.91 1013 10 16.09344 0 0
5:15 pm 17:15 Sunny 82 28 62 16.5 50 50 S 12 19 29.91 1013 10 16.09344 0 0
5:35 pm 17:35 Sunny 82 27.6 61 16.2 50 50 SSE 9 15 29.91 1013 10 16.09344 0 0
5:55 pm 17:55 Sunny 81 27.4 62 16.5 51 51 SSE 9 15 29.94 1014 10 16.09344 0 0
6:15 pm 18:15 Sunny 81 27.1 62 16.9 54 54 SSE 9 15 29.94 1014 10 16.09344 0 0
6:35 pm 18:35 Sunny 80 26.9 62 16.8 54 54 SSE 6 9 29.94 1014 10 16.09344 0 0
6:55 pm 18:55 Sunny 80 26.5 63 17.1 56 56 SE 5 7 29.94 1014 10 16.09344 0 0
7:15 pm 19:15 Sunny 78 25.5 62 16.9 59 59 ESE 6 9 29.94 1014 10 16.09344 0 0
7:35 pm 19:35 Sunny 76 24.3 64 17.7 67 67 E 7 11 29.94 1014 10 16.09344 0 0
7:55 pm 19:55 Sunny 74 23.5 64 17.6 70 70 ESE 7 11 29.97 1015 10 16.09344 0 0
8:15 pm 20:15 Clear 73 23 64 17.5 71 71 ESE 7 11 30 1016 10 16.09344 0 0
8:35 pm 20:35 Clear 74 23.2 64 17.7 71 71 ESE 7 11 30 1016 10 16.09344 0 0
8:55 pm 20:55 Clear 73 22.8 63 17.1 70 70 SE 6 9 30 1016 10 16.09344 0 0
9:15 pm 21:15 Clear 70 21 64 17.5 81 81 Calm 30 1016 10 16.09344 0 0
9:35 pm 21:35 Partly Cloudy 70 21.3 63 17.2 78 78 SE 5 7 30 1016 10 16.09344 0 0
9:55 pm 21:55 Mostly Cloudy 70 21.2 64 17.5 80 80 ESE 7 11 30.03 1017 10 16.09344 0 0
10:15 pm 22:15 Partly Cloudy 72 22 63 17.2 74 74 ESE 9 15 30.03 1017 10 16.09344 0 0
10:35 pm 22:35 Partly Cloudy 72 22 63 17 73 73 ESE 12 19 30.03 1017 10 16.09344 0 0
10:55 pm 22:55 Partly Cloudy 70 21.2 62 16.7 76 76 SE 10 17 30.03 1017 10 16.09344 0 0
11:15 pm 23:15 Clear 69 20.6 62 16.5 77 77 SE 7 11 30.06 1018 10 16.09344 0 0
11:35 pm 23:35 Partly Cloudy 68 20 61 16.1 78 78 SE 10 17 30.06 1018 10 16.09344 0 0
11:55 pm 23:55 Partly Cloudy 67 19.5 61 16 80 80 SE 6 9 30.06 1018 10 16.09344 0 0

Powered by AerisWeather